sat.trackr.live / text

‹ back to catalog

GLOBALSTAR M088

NORAD 37740 · 2011-033B

PAYLOAD ACTIVE UNKNOWN

§ Identity

Operator
Country
GLOB
Launch date
2011-07-13
Launch site
TYMSC
Launch vehicle
Mass (kg)
RCS (m²)
5.04

Purposes: comms

External: N2YO · Heavens-Above · Gunter

§ Orbital elements

Epoch: 2026-05-25T00:12:36.437184Z

Period
114.08 min
Inclination
52.0234°
Eccentricity
0.0000887
Mean motion
12.62268163 rev/d
Perigee alt
1,412.9 km
Apogee alt
1,414.3 km
Semi-major
7,791.7 km
B*
1.2288e-4
RAAN
349.4809°
Arg perigee
90.1410°
Mean anomaly
63.3525°
Rev number
68,556

§ Raw data

GLOBALSTAR M0881 37740U 11033B   26145.00875506 -.00000082  00000+0  12288-3 0  99922 37740  52.0234 349.4809 0000887  90.1410  63.3525 12.62268163685565

JSON: /api/v1/satellites/37740 · /tle

For live sub-satellite position, see the globe view (requires WebGL).

§ Visibility from observer

Set your observer location to see the next 7 days of passes ≥ 10°. The values pass through the URL so the page stays shareable.

No JS? Fill the form by hand. The geolocation button needs JavaScript.